INTELSAT 506

operational
NORAD ID: 14077 Int'l Des: 1983-047 Owner: INTEL Country: I-INT
HEOCIRCULAR

Über INTELSAT 506

Beschreibung wird geladen...

Live-Position

3D-Globus wird geladen...

Nächste Überflüge

Höhenverlauf

Altitude vs Time

uPlot chart will show altitude changes over time

Zweizeiliger Elementsatz

1 14077U 83047A 26062.14954023 -.00000258 00000-0 00000-0 0 9991
2 14077 12.5741 334.3381 0041143 350.6797 204.3205 0.99161697123039
Epoch: 3. März 2026 • Age: 27 hours

Aktueller Status

Höhe 36269.6 km
Geschwindigkeit 3.05 km/s
Subsatellitenpunkt -1.41°S, 49.62°W
Startdatum 19. Mai 1983
Alter 42.7 years
Typ communications

Technische Details

Klassifizierung Payload
Masse 1004.00 kg
Trockenmasse 775.00 kg
Gesamtmasse 1928.00 kg
Länge 6.40 m
Durchmesser 2.00 m
Spannweite 15.60 m
Form Box + 2 Pan
Hersteller FORDA
Bus-Typ FS INTELSAT 5
Phasenstatus Renamed
Besitzer/Staat INTEL/I-INT

Große Konstellationen

Loading constellations...